Tracking 32412 objects as of 6-Dec-2025
HD Live streaming from Space Station
objects crossing your sky now

STARLINK-2257

Track STARLINK-2257 now!
10-day predictions
STARLINK-2257 is classified as:


NORAD ID: 47787
Int'l Code: 2021-018A
Perigee: 553.5 km
Apogee: 555.3 km
Inclination: 53.1 °
Period: 95.6 minutes
Semi major axis: 6925 km
RCS: Unknown
Launch date: March 11, 2021
Source: United States (US)
Launch site: AIR FORCE EASTERN TEST RANGE (AFETR)
Your satellite tracking list
Your tracking list is empty




NASA's NSSDC Master Catalog

Two Line Element Set (TLE):
1 47787U 21018A   25339.95262781 -.00001570  00000-0 -86589-4 0  9992
2 47787  53.0558 312.4212 0001259  75.0377 285.0751 15.06387922262463
Source of the keplerian elements: AFSPC